Skip Page Navigation
NASA JPL Caltech
NASA Logo - Jet Propulsion Laboratory + View the NASA Portal
+ Center for Near-Earth Object Studies
JPL Home Earth Solar System Stars & Galaxies Technology
JPL Solar System Dynamics
BODIES ORBITS EPHEMERIDES TOOLS PHYSICAL DATA DISCOVERY FAQ SITE MAP
IMPORTANT: The SSD Announcement email list is now available. Major changes are coming in the near future, including possible hostname and/or URL changes. To be notified of such changes, subscribe to this email list.

Please visit this page for more details.


JPL Small-Body Database Browser
Search: [ help ]  
245411 (2005 JO15)
Classification: Main-belt Asteroid          SPK-ID: 2245411
Ephemeris | Orbit Diagram | Orbital Elements | Mission Design | Physical Parameters | Discovery Circumstances | Close-Approach Data ]

[ show orbit diagram ]
Orbital Elements at Epoch 2459000.5 (2020-May-31.0) TDB
Reference: JPL 6 (heliocentric ecliptic J2000)
 Element Value Uncertainty (1-sigma)   Units 
e .06066258239330672 8.3816e-08  
a 2.848807212149946 3.3945e-08 au
q 2.675991209920253 2.256e-07 au
i 3.109452513537554 6.1394e-06 deg
node 73.83153680499028 0.00016074 deg
peri 258.4898638500717 0.00017217 deg
M 310.5990585608717 6.4944e-05 deg
tp 2459241.504827403427
(2021-Jan-27.00482740)
0.00031884 TDB
period 1756.277012901488
4.81
3.139e-05
8.594e-08
d
yr
n .2049790536205082 3.6636e-09 deg/d
Q 3.021623214379638 3.6004e-08 au
  Orbit Determination Parameters
   # obs. used (total)      198  
   data-arc span      8774 days (24.02 yr)  
   first obs. used      1995-04-24  
   last obs. used      2019-05-02  
   planetary ephem.      DE431  
   SB-pert. ephem.      SB431-N16  
   condition code      0  
   norm. resid. RMS      .54741  
   source      ORB  
   producer      Otto Matic  
   solution date      2019-Jul-14 03:26:24  

Additional Information
 Earth MOID = 1.66746 au 
 Jupiter MOID = 2.19613 au 
 T_jup = 3.301 
[ show covariance matrix ]

Ephemeris | Orbit Diagram | Orbital Elements | Mission Design | Physical Parameters | Discovery Circumstances | Close-Approach Data ]

Physical Parameter Table
Parameter Symbol Value Units Sigma Reference Notes
absolute magnitude H 16.1   n/a MPO433607  

245411 (2005 JO15)          Discovered 2005-May-03 by Spacewatch at Kitt Peak
Reference: 20100726/Numbers.arcLast Updated: 2010-07-28

[ show close-approach data ]
Alternate Designations
 2005 JO15 = 2006 QG11 
Ephemeris | Orbit Diagram | Orbital Elements | Mission Design | Physical Parameters | Discovery Circumstances | Close-Approach Data ]
ABOUT SSD CREDITS/AWARDS PRIVACY/COPYRIGHT GLOSSARY LINKS
FirstGov 2020-Apr-03 23:33 UT
(server date/time)  
NASA Home Page
Site Manager:   Ryan S. Park
Webmaster  Alan B. Chamberlin